This demonstration page uses our WeatherBlox Daily Observations layout. Learn more.

Left ArrowRight Arrow

Hourly Observations for June 1, 2022

Temp ( °F °C ) Dew Point ( °F °C ) Humidity (%) Winds ( mph kmh ) Pressure ( in mb ) Visibility ( mi km ) Precip ( " mm )
12:52 am 00:52 Partly Cloudy 59 15 50 10 72 72 N 13 20 30.05 1018 10 16 0.00 0.00
1:52 am 01:52 Mostly Cloudy 57 13.9 50 10 78 78 N 8 13 30.05 1018 10 16 0.00 0.00
2:52 am 02:52 Mostly Cloudy 55 12.8 49 9.4 80 80 NNW 8 13 30.06 1018 10 16 0.00 0.00
3:52 am 03:52 Cloudy 54 12.2 49 9.4 83 83 NNW 8 13 30.06 1018 10 16 0.00 0.00
4:52 am 04:52 Cloudy 54 12.2 50 10 87 87 Calm 30.11 1020 10 16 0.00 0.00
5:52 am 05:52 Mostly Cloudy 52 11.1 49 9.4 89 89 N 5 7 30.11 1020 10 16 0.00 0.00
6:52 am 06:52 Mostly Cloudy 53 11.7 50 10 89 89 N 8 13 30.11 1020 10 16 0.00 0.00
7:52 am 07:52 Mostly Cloudy 55 12.8 51 10.6 87 87 N 6 9 30.11 1020 10 16 0.00 0.00
8:52 am 08:52 Mostly Cloudy 59 15 50 10 72 72 N 6 9 30.13 1020 10 16 0.00 0.00
9:52 am 09:52 Mostly Cloudy 62 16.7 50 10 65 65 N 6 9 30.14 1021 10 16 0.00 0.00
10:52 am 10:52 Mostly Cloudy 65 18.3 50 10 59 59 VRB 3 6 30.15 1021 10 16 0.00 0.00
11:52 am 11:52 Mostly Cloudy 67 19.4 49 9.4 53 53 N 8 13 30.12 1020 10 16 0.00 0.00
12:52 pm 12:52 Mostly Cloudy 67 19.4 48 8.9 51 51 NW 8 13 30.09 1019 10 16 0.00 0.00
1:52 pm 13:52 Mostly Cloudy 69 20.6 47 8.3 45 45 NNW 13 20 30.09 1019 10 16 0.00 0.00
2:52 pm 14:52 Mostly Cloudy 69 20.6 47 8.3 45 45 NW 13 20 30.08 1019 10 16 0.00 0.00
3:52 pm 15:52 Mostly Cloudy 72 22.2 48 8.9 43 43 N 12 19 30.07 1018 10 16 0.00 0.00
4:52 pm 16:52 Mostly Cloudy 72 22.2 46 7.8 40 40 NW 7 11 30.06 1018 10 16 0.00 0.00
5:52 pm 17:52 Mostly Cloudy 73 22.8 44 6.7 35 35 WNW 12 19 30.04 1017 10 16 0.00 0.00
6:52 pm 18:52 Partly Cloudy 71 21.7 41 5 34 34 NNW 9 15 30.03 1017 10 16 0.00 0.00
7:52 pm 19:52 Mostly Sunny 69 20.6 40 4.4 35 35 NNW 15 24 30.02 1017 10 16 0.00 0.00
8:52 pm 20:52 Clear 63 17.2 39 3.9 41 41 NNW 8 13 30.04 1017 10 16 0.00 0.00
9:52 pm 21:52 Clear 60 15.6 42 5.6 52 52 N 3 6 30.05 1018 10 16 0.00 0.00
10:52 pm 22:52 Clear 58 14.4 44 6.7 60 60 NNW 3 6 30.07 1018 10 16 0.00 0.00
11:52 pm 23:52 Clear 56 13.3 43 6.1 62 62 Calm 30.07 1018 10 16 0.00 0.00

Powered by AerisWeather